sat.trackr.live / text

‹ back to catalog

SHIYAN-28B 01

NORAD 64753 · 2025-145A

PAYLOAD ACTIVE UNKNOWN

§ Identity

Operator
Country
PRC
Launch date
2025-07-03
Launch site
XICLF
Launch vehicle
Mass (kg)
RCS (m²)

External: N2YO · Heavens-Above · Gunter

§ Orbital elements

Epoch: 2026-05-25T04:19:18.327072Z

Period
100.74 min
Inclination
10.9982°
Eccentricity
0.0003179
Mean motion
14.29388480 rev/d
Perigee alt
791.5 km
Apogee alt
796.1 km
Semi-major
7,171.9 km
B*
5.2435e-5
RAAN
116.4390°
Arg perigee
215.4144°
Mean anomaly
144.5873°
Rev number
4,661

§ Raw data

SHIYAN-28B 011 64753U 25145A   26145.18007323  .00000568  00000+0  52435-4 0  99952 64753  10.9982 116.4390 0003179 215.4144 144.5873 14.29388480 46617

JSON: /api/v1/satellites/64753 · /tle

For live sub-satellite position, see the globe view (requires WebGL).

§ Visibility from observer

Set your observer location to see the next 7 days of passes ≥ 10°. The values pass through the URL so the page stays shareable.

No JS? Fill the form by hand. The geolocation button needs JavaScript.